Find Starlink 33548

NORAD ID: 62280 Int'l Des: 2024-237 Owner: SPXS Country: US Constellation: starlink operational
LEOCIRCULAR

現在のビュー

3D地球を読み込み中...

About Starlink 33548

Starlink 33548 (NORAD 62280) is a starlink constellation satellite (v2 mini) launched Dec 8, 2024 by SPXS of US. It operates in LEO, CIRCULAR orbit with a mass of 530.00 kg.

次回通過

Passes for default location (London). Set your location on the main map for personalized predictions.

高度履歴

Loading altitude history...

軌道要素

1 62280U 24237P 26264.17027139 .00012253 00000-0 45387-3 0 9999
2 62280 43.0071 181.5288 0001976 253.5287 106.5348 15.27591780101210
Epoch: Sep 21, 2026 • Age: 7 hours

現在のステータス

高度 492.6 km
遠地点 / 近地点 N/A
速度 7.62 km/s
衛星直下点 -37.32°S, 117.48°W
打ち上げ日 Dec 8, 2024
運用期間 1.7 years
タイプ internet

技術仕様

分類 Payload
質量 530.00 kg
乾燥質量 500.00 kg
長さ 0.30 m
スパン 29.00 m
形状 ? Box + pan
製造者 SPXS
バスタイプ Starlink V2MO
フェーズステータス In Orbit
所有者/国 SPXS/US

Most Searched